Cross City, FL

2:33 PM EST on February 21, 2017 (GMT -0500)
Cross City

Weather History for KCTY - February, 2013

Change the Weather History Date:

Thursday, February 28, 2013

  Actual Average Record
Temperature  
Mean Temperature 57 °F 59 °F  
Max Temperature 70 °F 73 °F 84 °F (2007)
Min Temperature 43 °F 45 °F 21 °F (2002)
Degree Days  
Heating Degree Days 8 7  
Month to date heating degree days 204 241  
Since 1 July heating degree days 810 1120  
Cooling Degree Days 0 1  
Month to date cooling degree days 45 16  
Year to date cooling degree days 96 27  
Growing Degree Days 6 (Base 50)    
Moisture  
Dew Point 43 °F    
Average Humidity 64    
Maximum Humidity 92    
Minimum Humidity 36    
Precipitation  
Precipitation 0.00 in 0.18 in 0.56 in (2003)
Month to date precipitation 2.93 3.27  
Year to date precipitation 3.51 7.31  
Sea Level Pressure  
Sea Level Pressure 29.96 in    
Wind  
Wind Speed 6 mph (WNW)    
Max Wind Speed 21 mph    
Max Gust Speed 25 mph    
T = Trace of Precipitation, MM = Missing Value Source: NWS Daily Summary

Daily Weather History Graph

Daily Weather History Graph

Search for Another Location

Airport or City:

Trip Planner

Search our weather history database for the weather conditions in past years. The results will help you decide how hot, cold, wet, or windy it might be!

Date:

Astronomy

Feb. 28, 2013 Rise Set
Actual Time 6:58 AM EST 6:31 PM EST
Civil Twilight 6:34 AM EST 6:55 PM EST
Nautical Twilight 6:07 AM EST 7:22 PM EST
Astronomical Twilight 5:39 AM EST 7:50 PM EST
Moon 9:36 PM EST (2/28) 8:25 AM EST (2/28)
Length of Visible Light 12h 20m
Length of Day
11h 32m
Waning Gibbous, 91% of the Moon is Illuminated
Feb 28
Waning Gibbous
Mar 4
Last Quarter
Mar 11
New
Mar 19
First Quarter
Mar 27
Full

Hourly Weather History & Observations

Time (EST) Temp. Windchill Dew Point Humidity Pressure Visibility Wind Dir Wind Speed Gust Speed Precip Events Conditions
12:53 AM 51.1 °F - 44.1 °F 77% 29.97 in - NW 4.6 mph - N/A   Unknown
1:53 AM 52.0 °F - 46.0 °F 80% 29.97 in - WNW 3.5 mph - N/A   Unknown
2:53 AM 50.0 °F - 45.0 °F 83% 29.96 in - Calm Calm - N/A   Unknown
3:53 AM 46.0 °F - 42.1 °F 86% 29.95 in - Calm Calm - N/A   Unknown
4:53 AM 45.0 °F - 42.1 °F 90% 29.95 in - Calm Calm - N/A   Unknown
5:53 AM 44.1 °F - 41.0 °F 89% 29.96 in - Calm Calm - N/A   Unknown
6:53 AM 44.1 °F 41.5 °F 41.0 °F 89% 29.97 in - NW 4.6 mph - N/A   Unknown
7:53 AM 54.0 °F - 48.0 °F 80% 29.99 in - NNW 4.6 mph - N/A   Unknown
8:53 AM 57.9 °F - 46.0 °F 65% 30.01 in - North 5.8 mph - N/A   Unknown
9:53 AM 61.0 °F - 42.1 °F 50% 30.01 in - North 6.9 mph - N/A   Unknown
10:53 AM 64.0 °F - 44.1 °F 48% 30.00 in - WNW 6.9 mph - N/A   Unknown
11:53 AM 68.0 °F - 46.0 °F 45% 29.98 in - West 13.8 mph 17.3 mph N/A   Unknown
12:53 PM 70.0 °F - 43.0 °F 38% 29.96 in - West 15.0 mph 21.9 mph N/A   Unknown
1:53 PM 69.1 °F - 41.0 °F 36% 29.94 in - West 15.0 mph 23.0 mph N/A   Unknown
2:53 PM 66.9 °F - 39.9 °F 37% 29.94 in - WSW 12.7 mph - N/A   Unknown
3:53 PM 64.9 °F - 39.9 °F 40% 29.93 in - West 16.1 mph 24.2 mph N/A   Unknown
4:53 PM 64.0 °F - 42.1 °F 45% 29.93 in - West 13.8 mph 19.6 mph N/A   Unknown
5:53 PM 61.0 °F - 44.1 °F 54% 29.94 in - West 8.1 mph - N/A   Unknown
6:53 PM 57.9 °F - 45.0 °F 62% 29.94 in - WSW 5.8 mph - N/A   Unknown
7:53 PM 55.0 °F - 45.0 °F 69% 29.95 in - WSW 3.5 mph - N/A   Unknown
8:53 PM 51.1 °F - 44.1 °F 77% 29.94 in - SSW 3.5 mph - N/A   Unknown
9:53 PM 48.0 °F - 43.0 °F 83% 29.95 in - Calm Calm - N/A   Unknown
10:53 PM 53.1 °F - 39.0 °F 59% 29.96 in - Calm Calm - N/A   Unknown
11:53 PM 46.9 °F - 39.0 °F 74% 29.98 in - WNW 3.5 mph - N/A   Unknown